TimePDT,TemperatureF,Dew PointF,Humidity,Sea Level PressureIn,VisibilityMPH,Wind Direction,Wind SpeedMPH,Gust SpeedMPH,PrecipitationIn,Events,Conditions,WindDirDegrees,DateUTC
12:54 AM,51.1,46.9,86,29.95,10.0,WSW,8.1,-,N/A,,Clear,250,2013-05-17 07:54:00
1:54 AM,50.0,46.0,86,29.95,10.0,WSW,8.1,-,N/A,,Clear,240,2013-05-17 08:54:00
2:54 AM,50.0,46.0,86,29.94,10.0,West,8.1,-,N/A,,Clear,260,2013-05-17 09:54:00
3:54 AM,48.9,45.0,86,29.95,10.0,West,5.8,-,N/A,,Clear,270,2013-05-17 10:54:00
5:54 AM,46.9,44.1,90,29.96,10.0,West,5.8,-,N/A,,Clear,270,2013-05-17 12:54:00
6:54 AM,46.0,43.0,89,29.97,10.0,Calm,Calm,-,N/A,,Clear,0,2013-05-17 13:54:00
7:54 AM,53.1,46.9,80,29.99,10.0,West,6.9,-,N/A,,Clear,270,2013-05-17 14:54:00
8:54 AM,57.0,46.0,67,29.99,10.0,West,8.1,-,N/A,,Clear,270,2013-05-17 15:54:00
9:54 AM,60.1,45.0,57,29.99,10.0,WSW,8.1,-,N/A,,Clear,250,2013-05-17 16:54:00
10:54 AM,63.0,46.9,56,30.00,10.0,SSW,10.4,-,N/A,,Clear,200,2013-05-17 17:54:00
12:54 PM,71.1,45.0,39,29.99,10.0,WSW,16.1,21.9,N/A,,Clear,240,2013-05-17 19:54:00
1:54 PM,72.0,41.0,33,29.99,10.0,West,16.1,23.0,N/A,,Clear,270,2013-05-17 20:54:00
2:54 PM,72.0,42.1,34,29.98,10.0,West,20.7,28.8,N/A,,Clear,270,2013-05-17 21:54:00
3:54 PM,69.1,43.0,39,29.99,10.0,WSW,20.7,25.3,N/A,,Clear,250,2013-05-17 22:54:00
4:54 PM,68.0,43.0,40,29.99,10.0,WSW,18.4,24.2,N/A,,Clear,250,2013-05-17 23:54:00
5:54 PM,64.9,39.9,40,29.99,10.0,West,17.3,-,N/A,,Clear,260,2013-05-18 00:54:00
6:54 PM,62.1,42.1,48,29.99,10.0,West,15.0,-,N/A,,Clear,260,2013-05-18 01:54:00
7:54 PM,57.9,43.0,58,30.01,10.0,SW,10.4,-,N/A,,Clear,230,2013-05-18 02:54:00
8:54 PM,55.0,43.0,64,30.02,10.0,WSW,8.1,-,N/A,,Clear,250,2013-05-18 03:54:00
9:54 PM,53.1,44.1,71,30.03,10.0,SW,11.5,-,N/A,,Clear,230,2013-05-18 04:54:00
10:54 PM,50.0,45.0,83,30.04,10.0,West,5.8,-,N/A,,Clear,260,2013-05-18 05:54:00
11:54 PM,48.9,45.0,86,30.04,10.0,WSW,5.8,-,N/A,,Clear,240,2013-05-18 06:54:00